Location: Huntsville
(41.2590°N, 111.7678°W)
Time: 04:00:48
(UTC+00:00)

Transit 4A - All Passes

Search period start: 06 October 2022 00:00
Search period end: 16 October 2022 00:00
Orbit: 870 x 974 km, 66.8° (Epoch: 05 October)

Date Brightness Start Highest point End Pass type
(mag) Time Alt. Az. Time Alt. Az. Time Alt. Az.
06 Oct - 03:52:26 10° S 03:58:09 40° ESE 04:03:45 10° NE night (unlit)
06 Oct - 05:38:50 10° WSW 05:44:31 37° NW 05:50:05 10° NNE night (unlit)
06 Oct - 12:55:00 10° NNW 13:00:34 43° NE 13:06:03 10° SE visible
06 Oct - 14:41:42 10° NW 14:46:41 30° WSW 14:51:40 10° SSW daylight
07 Oct - 04:01:12 10° SSW 04:07:16 59° ESE 04:13:13 10° NE night (unlit)
07 Oct - 05:48:51 10° WSW 05:53:59 27° NW 05:59:02 10° N night (unlit)
07 Oct - 11:19:30 10° N 11:22:20 13° NE 11:25:08 10° ENE visible
07 Oct - 13:04:06 10° NNW 13:09:55 62° ENE 13:15:39 10° SE visible
07 Oct - 14:51:36 10° WNW 14:55:41 20° WSW 14:59:44 10° SSW daylight
08 Oct - 02:28:24 10° SE 02:30:59 13° ESE 02:33:34 10° ENE night (unlit)
08 Oct - 04:10:15 10° SSW 04:16:28 86° ESE 04:22:32 10° NNE night (unlit)
08 Oct - 05:59:11 10° W 06:03:34 20° NW 06:07:53 10° N night (unlit)
08 Oct - 11:28:04 10° N 11:32:01 18° NE 11:35:56 10° E visible
08 Oct - 13:13:18 10° NNW 13:19:11 90° WSW 13:24:59 10° SSE daylight
08 Oct - 15:02:20 10° WNW 15:04:36 12° WSW 15:06:51 10° SW daylight
09 Oct - 02:35:34 10° SSE 02:39:56 20° ESE 02:44:14 10° ENE visible
09 Oct - 04:19:34 10° SW 04:25:44 67° WNW 04:31:45 10° NNE visible
09 Oct - 06:09:55 10° WNW 06:13:14 15° NW 06:16:31 10° N night (unlit)
09 Oct - 11:36:53 10° N 11:41:37 25° NE 11:46:18 10° E visible
09 Oct - 13:22:37 10° NW 13:28:21 61° WSW 13:34:03 10° SSE daylight
10 Oct - 02:43:39 10° SSE 02:48:57 30° ESE 02:54:08 10° NE visible
10 Oct - 04:29:10 10° SW 04:35:04 46° NW 04:40:52 10° NNE visible
10 Oct - 06:21:23 10° NW 06:23:00 11° NNW 06:24:37 10° NNW night (unlit)
10 Oct - 11:45:49 10° NNW 11:51:06 34° NE 11:56:20 10° ESE visible
10 Oct - 13:32:05 10° NW 13:37:28 40° WSW 13:42:49 10° S daylight
11 Oct - 02:52:10 10° S 02:58:01 45° ESE 03:03:45 10° NE visible
11 Oct - 04:39:00 10° WSW 04:44:30 33° NW 04:49:54 10° NNE visible
11 Oct - 10:11:02 10° NNE 10:12:39 11° NNE 10:14:15 10° NE visible
11 Oct - 11:54:51 10° NNW 12:00:31 48° NE 12:06:07 10° SE visible
11 Oct - 13:41:47 10° NW 13:46:30 26° WSW 13:51:14 10° SSW daylight
12 Oct - 03:01:02 10° SSW 03:07:10 68° ESE 03:13:09 10° NE visible
12 Oct - 04:49:08 10° W 04:54:00 24° NW 04:58:49 10° N visible
12 Oct - 10:19:09 10° N 10:22:24 15° NE 10:25:38 10° ENE visible
12 Oct - 12:03:59 10° NNW 12:09:50 71° ENE 12:15:37 10° SE visible
12 Oct - 13:51:53 10° WNW 13:55:29 17° WSW 13:59:05 10° SW daylight
13 Oct - 01:27:27 10° SE 01:30:48 15° ESE 01:34:06 10° ENE visible
13 Oct - 03:10:11 10° SSW 03:16:23 84° WNW 03:22:26 10° NNE visible
13 Oct - 04:59:35 10° W 05:03:37 18° NW 05:07:36 10° N visible
13 Oct - 10:27:48 10° N 10:32:03 20° NE 10:36:15 10° E visible
13 Oct - 12:13:14 10° NNW 12:19:04 79° WSW 12:24:52 10° SSE visible
13 Oct - 14:03:44 10° W 14:04:23 10° W 14:05:03 10° WSW daylight
14 Oct - 01:35:02 10° SSE 01:39:46 23° ESE 01:44:24 10° ENE visible
14 Oct - 03:19:36 10° SW 03:25:40 59° WNW 03:31:37 10° NNE visible
14 Oct - 05:10:29 10° WNW 05:13:19 13° NW 05:16:07 10° N visible
14 Oct - 10:36:40 10° N 10:41:37 27° NE 10:46:30 10° ESE visible
14 Oct - 12:22:35 10° NW 12:28:14 52° WSW 12:33:50 10° S visible
15 Oct - 01:43:17 10° S 01:48:48 35° ESE 01:54:11 10° NE visible
15 Oct - 03:29:16 10° WSW 03:35:02 41° NW 03:40:42 10° NNE visible
15 Oct - 10:45:38 10° NNW 10:51:05 38° NE 10:56:28 10° ESE visible
15 Oct - 12:32:07 10° NW 12:37:19 34° WSW 12:42:30 10° S visible
